Time,TemperatureF,DewpointF,PressureIn,WindDirection,WindDirectionDegrees,WindSpeedMPH,WindSpeedGustMPH,Humidity,HourlyPrecipIn,Conditions,Clouds,dailyrainin,SolarRadiationWatts/m^2,SoftwareType,DateUTC
2013-07-04 00:00:00,68.5,46.3,29.76,WSW,237,0.0,5.0,45,0.00,,,0.00,0,Wunderground v.1.15,2013-07-04 06:00:00,
2013-07-04 00:05:00,68.5,46.9,29.76,WSW,237,0.0,5.0,46,0.00,,,0.00,0,Wunderground v.1.15,2013-07-04 06:05:00,
2013-07-04 00:15:00,68.0,47.0,29.76,WSW,237,0.0,0.0,47,0.00,,,0.00,0,Wunderground v.1.15,2013-07-04 06:15:00,
2013-07-04 00:25:00,67.6,46.6,29.76,WSW,237,0.0,0.0,47,0.00,,,0.00,0,Wunderground v.1.15,2013-07-04 06:25:00,
2013-07-04 00:35:00,67.4,46.5,29.76,WSW,237,0.0,0.0,47,0.00,,,0.00,0,Wunderground v.1.15,2013-07-04 06:35:00,
2013-07-04 00:40:00,67.4,47.6,29.76,WSW,237,0.0,0.0,49,0.00,,,0.00,0,Wunderground v.1.15,2013-07-04 06:40:00,
2013-07-04 00:50:00,67.2,46.3,29.76,WSW,237,0.0,0.0,47,0.00,,,0.00,0,Wunderground v.1.15,2013-07-04 06:50:00,
2013-07-04 01:00:00,67.0,47.2,29.76,WSW,237,0.0,0.0,49,0.00,,,0.00,0,Wunderground v.1.15,2013-07-04 07:00:00,
2013-07-04 01:10:00,66.7,45.3,29.76,WSW,237,0.0,1.0,46,0.00,,,0.00,0,Wunderground v.1.15,2013-07-04 07:10:00,
2013-07-04 01:20:00,66.8,46.5,29.75,WSW,237,0.0,1.0,48,0.00,,,0.00,0,Wunderground v.1.15,2013-07-04 07:20:00,
2013-07-04 01:25:00,66.9,47.6,29.76,WSW,237,0.0,1.0,50,0.00,,,0.00,0,Wunderground v.1.15,2013-07-04 07:25:00,
2013-07-04 01:35:00,67.0,47.2,29.76,WSW,237,0.0,1.0,49,0.00,,,0.00,0,Wunderground v.1.15,2013-07-04 07:35:00,
2013-07-04 01:40:00,67.0,47.2,29.76,WSW,237,0.0,1.0,49,0.00,,,0.00,0,Wunderground v.1.15,2013-07-04 07:40:00,
2013-07-04 01:50:00,66.9,47.1,29.76,East,85,0.0,1.0,49,0.00,,,0.00,0,Wunderground v.1.15,2013-07-04 07:50:00,
2013-07-04 02:00:00,66.3,46.0,29.75,East,90,0.0,1.0,48,0.00,,,0.00,0,Wunderground v.1.15,2013-07-04 08:00:00,
2013-07-04 02:05:00,66.3,46.6,29.75,East,91,0.0,1.0,49,0.00,,,0.00,0,Wunderground v.1.15,2013-07-04 08:05:00,
2013-07-04 02:10:00,66.0,45.7,29.75,East,89,0.0,1.0,48,0.00,,,0.00,0,Wunderground v.1.15,2013-07-04 08:10:00,
2013-07-04 02:20:00,65.7,47.6,29.75,East,90,0.0,1.0,52,0.00,,,0.00,0,Wunderground v.1.15,2013-07-04 08:20:00,
2013-07-04 02:25:00,65.4,46.8,29.74,East,89,0.0,1.0,51,0.00,,,0.00,0,Wunderground v.1.15,2013-07-04 08:25:00,
2013-07-04 02:35:00,65.2,47.1,29.74,East,90,0.0,1.0,52,0.00,,,0.00,0,Wunderground v.1.15,2013-07-04 08:35:00,
2013-07-04 02:45:00,65.2,46.1,29.74,East,89,0.0,1.0,50,0.00,,,0.00,0,Wunderground v.1.15,2013-07-04 08:45:00,
2013-07-04 02:55:00,65.2,46.6,29.74,East,90,0.0,1.0,51,0.00,,,0.00,0,Wunderground v.1.15,2013-07-04 08:55:00,
2013-07-04 03:00:00,64.9,45.8,29.74,East,89,0.0,1.0,50,0.00,,,0.00,0,Wunderground v.1.15,2013-07-04 09:00:00,
2013-07-04 03:05:00,64.5,46.0,29.74,East,90,0.0,1.0,51,0.00,,,0.00,0,Wunderground v.1.15,2013-07-04 09:05:00,
2013-07-04 03:15:00,64.3,45.8,29.74,East,90,0.0,0.0,51,0.00,,,0.00,0,Wunderground v.1.15,2013-07-04 09:15:00,
2013-07-04 03:20:00,64.1,46.1,29.74,East,89,0.0,0.0,52,0.00,,,0.00,0,Wunderground v.1.15,2013-07-04 09:20:00,
2013-07-04 03:25:00,64.1,47.1,29.74,East,89,0.0,0.0,54,0.00,,,0.00,0,Wunderground v.1.15,2013-07-04 09:25:00,
2013-07-04 03:30:00,63.9,46.4,29.74,East,89,0.0,0.0,53,0.00,,,0.00,0,Wunderground v.1.15,2013-07-04 09:30:00,
2013-07-04 03:40:00,63.7,46.2,29.74,East,89,0.0,0.0,53,0.00,,,0.00,0,Wunderground v.1.15,2013-07-04 09:40:00,
2013-07-04 03:50:00,63.4,46.0,29.73,East,89,0.0,0.0,53,0.00,,,0.00,0,Wunderground v.1.15,2013-07-04 09:50:00,
2013-07-04 04:00:00,63.1,45.7,29.73,East,89,0.0,0.0,53,0.00,,,0.00,0,Wunderground v.1.15,2013-07-04 10:00:00,
2013-07-04 04:10:00,62.8,45.4,29.73,East,90,0.0,0.0,53,0.00,,,0.00,0,Wunderground v.1.15,2013-07-04 10:10:00,
2013-07-04 04:15:00,62.7,45.8,29.73,East,89,0.0,0.0,54,0.00,,,0.00,0,Wunderground v.1.15,2013-07-04 10:15:00,
2013-07-04 04:25:00,62.4,46.5,29.74,East,89,0.0,0.0,56,0.00,,,0.00,0,Wunderground v.1.15,2013-07-04 10:25:00,
2013-07-04 04:30:00,62.2,45.8,29.74,East,90,0.0,0.0,55,0.00,,,0.00,0,Wunderground v.1.15,2013-07-04 10:30:00,
2013-07-04 04:35:00,62.0,46.6,29.73,South,191,0.0,0.0,57,0.00,,,0.00,0,Wunderground v.1.15,2013-07-04 10:35:00,
2013-07-04 04:45:00,61.7,46.8,29.74,SW,222,0.0,0.0,58,0.00,,,0.00,0,Wunderground v.1.15,2013-07-04 10:45:00,
2013-07-04 04:55:00,61.2,45.8,29.74,SW,221,0.0,0.0,57,0.00,,,0.00,0,Wunderground v.1.15,2013-07-04 10:55:00,
2013-07-04 05:00:00,60.9,45.6,29.74,SW,222,0.0,0.0,57,0.00,,,0.00,0,Wunderground v.1.15,2013-07-04 11:00:00,
2013-07-04 05:10:00,60.8,46.4,29.74,SW,222,0.0,0.0,59,0.00,,,0.00,0,Wunderground v.1.15,2013-07-04 11:10:00,
2013-07-04 05:20:00,60.8,45.5,29.75,SSW,205,0.0,0.0,57,0.00,,,0.00,0,Wunderground v.1.15,2013-07-04 11:20:00,
2013-07-04 05:25:00,60.7,45.4,29.75,SSW,205,0.0,0.0,57,0.00,,,0.00,0,Wunderground v.1.15,2013-07-04 11:25:00,
2013-07-04 05:35:00,60.3,45.5,29.75,SSW,206,0.0,0.0,58,0.00,,,0.00,0,Wunderground v.1.15,2013-07-04 11:35:00,
2013-07-04 05:45:00,59.8,45.0,29.75,SW,216,0.0,0.0,58,0.00,,,0.00,0,Wunderground v.1.15,2013-07-04 11:45:00,
2013-07-04 05:55:00,59.6,45.2,29.75,WSW,237,0.0,2.0,59,0.00,,,0.00,7,Wunderground v.1.15,2013-07-04 11:55:00,
2013-07-04 06:00:00,59.5,45.2,29.75,SSE,155,1.0,4.0,59,0.00,,,0.00,9,Wunderground v.1.15,2013-07-04 12:00:00,
2013-07-04 06:05:00,59.4,45.1,29.75,South,176,1.0,4.0,59,0.00,,,0.00,12,Wunderground v.1.15,2013-07-04 12:05:00,
2013-07-04 06:15:00,59.4,45.1,29.76,WSW,244,1.0,1.0,59,0.00,,,0.00,16,Wunderground v.1.15,2013-07-04 12:15:00,
2013-07-04 06:20:00,59.3,45.0,29.76,WSW,244,0.0,0.0,59,0.00,,,0.00,19,Wunderground v.1.15,2013-07-04 12:20:00,
2013-07-04 06:30:00,59.3,45.8,29.76,WSW,244,0.0,0.0,61,0.00,,,0.00,25,Wunderground v.1.15,2013-07-04 12:30:00,
2013-07-04 06:40:00,58.8,45.4,29.76,South,190,1.0,1.0,61,0.00,,,0.00,28,Wunderground v.1.15,2013-07-04 12:40:00,
2013-07-04 06:45:00,58.6,45.6,29.76,South,189,1.0,1.0,62,0.00,,,0.00,30,Wunderground v.1.15,2013-07-04 12:45:00,
2013-07-04 06:55:00,58.4,45.4,29.76,South,190,0.0,0.0,62,0.00,,,0.00,33,Wunderground v.1.15,2013-07-04 12:55:00,
2013-07-04 07:05:00,58.5,45.5,29.77,South,189,0.0,0.0,62,0.00,,,0.00,37,Wunderground v.1.15,2013-07-04 13:05:00,
2013-07-04 07:15:00,58.6,45.6,29.77,South,189,0.0,2.0,62,0.00,,,0.00,49,Wunderground v.1.15,2013-07-04 13:15:00,
2013-07-04 07:25:00,59.5,46.9,29.77,SSW,194,0.0,2.0,63,0.00,,,0.00,199,Wunderground v.1.15,2013-07-04 13:25:00,
2013-07-04 07:30:00,59.8,45.9,29.77,SSE,149,0.0,2.0,60,0.00,,,0.00,206,Wunderground v.1.15,2013-07-04 13:30:00,
2013-07-04 07:35:00,59.9,46.0,29.77,SSE,149,0.0,2.0,60,0.00,,,0.00,223,Wunderground v.1.15,2013-07-04 13:35:00,
2013-07-04 07:40:00,60.5,46.5,29.77,SSE,149,0.0,2.0,60,0.00,,,0.00,243,Wunderground v.1.15,2013-07-04 13:40:00,
2013-07-04 07:50:00,61.2,45.8,29.77,SSE,149,0.0,2.0,57,0.00,,,0.00,274,Wunderground v.1.15,2013-07-04 13:50:00,
2013-07-04 07:55:00,61.8,46.9,29.77,SSE,149,0.0,2.0,58,0.00,,,0.00,290,Wunderground v.1.15,2013-07-04 13:55:00,
2013-07-04 08:00:00,62.7,47.2,29.77,SE,139,0.0,2.0,57,0.00,,,0.00,301,Wunderground v.1.15,2013-07-04 14:00:00,
2013-07-04 08:10:00,63.8,47.8,29.77,ESE,116,0.0,2.0,56,0.00,,,0.00,332,Wunderground v.1.15,2013-07-04 14:10:00,
2013-07-04 08:15:00,64.3,46.8,29.77,West,270,1.0,2.0,53,0.00,,,0.00,345,Wunderground v.1.15,2013-07-04 14:15:00,
2013-07-04 08:25:00,65.1,46.5,29.77,ESE,118,2.0,4.0,51,0.00,,,0.00,392,Wunderground v.1.15,2013-07-04 14:25:00,
2013-07-04 08:35:00,65.6,45.4,29.77,SSE,148,2.0,3.0,48,0.00,,,0.00,403,Wunderground v.1.15,2013-07-04 14:35:00,
2013-07-04 08:40:00,66.2,45.9,29.76,South,189,2.0,2.0,48,0.00,,,0.00,410,Wunderground v.1.15,2013-07-04 14:40:00,
2013-07-04 08:45:00,66.8,45.3,29.76,South,175,2.0,2.0,46,0.00,,,0.00,418,Wunderground v.1.15,2013-07-04 14:45:00,
2013-07-04 08:50:00,67.3,45.8,29.76,SE,142,2.0,5.0,46,0.00,,,0.00,450,Wunderground v.1.15,2013-07-04 14:50:00,
2013-07-04 08:55:00,67.7,45.6,29.76,SSW,204,2.0,5.0,45,0.00,,,0.00,471,Wunderground v.1.15,2013-07-04 14:55:00,
2013-07-04 09:00:00,68.2,46.0,29.75,SSE,147,2.0,3.0,45,0.00,,,0.00,489,Wunderground v.1.15,2013-07-04 15:00:00,
2013-07-04 09:05:00,68.6,46.4,29.75,SSE,149,2.0,5.0,45,0.00,,,0.00,506,Wunderground v.1.15,2013-07-04 15:05:00,
2013-07-04 09:15:00,69.9,45.8,29.75,SSE,168,1.0,1.0,42,0.00,,,0.00,517,Wunderground v.1.15,2013-07-04 15:15:00,
2013-07-04 09:20:00,69.9,45.8,29.75,South,176,1.0,1.0,42,0.00,,,0.00,462,Wunderground v.1.15,2013-07-04 15:20:00,
2013-07-04 09:25:00,70.4,46.2,29.74,SSE,158,1.0,1.0,42,0.00,,,0.00,561,Wunderground v.1.15,2013-07-04 15:25:00,
2013-07-04 09:35:00,70.8,47.2,29.74,ESE,121,2.0,2.0,43,0.00,,,0.00,513,Wunderground v.1.15,2013-07-04 15:35:00,
2013-07-04 09:45:00,71.4,46.5,29.73,SSW,208,1.0,5.0,41,0.00,,,0.00,649,Wunderground v.1.15,2013-07-04 15:45:00,
2013-07-04 09:50:00,71.7,46.7,29.73,SSE,150,2.0,7.0,41,0.00,,,0.00,679,Wunderground v.1.15,2013-07-04 15:50:00,
2013-07-04 09:55:00,72.0,47.0,29.73,SSE,152,2.0,7.0,41,0.00,,,0.00,601,Wunderground v.1.15,2013-07-04 15:55:00,
2013-07-04 10:05:00,72.6,46.9,29.72,SE,128,3.0,7.0,40,0.00,,,0.00,555,Wunderground v.1.15,2013-07-04 16:05:00,
2013-07-04 10:10:00,72.7,46.3,29.72,SSE,160,3.0,7.0,39,0.00,,,0.00,534,Wunderground v.1.15,2013-07-04 16:10:00,
2013-07-04 10:20:00,73.7,45.8,29.71,ESE,112,3.0,7.0,37,0.00,,,0.00,603,Wunderground v.1.15,2013-07-04 16:20:00,
2013-07-04 10:25:00,74.3,46.3,29.71,South,179,2.0,7.0,37,0.00,,,0.00,552,Wunderground v.1.15,2013-07-04 16:25:00,
2013-07-04 10:30:00,74.6,45.9,29.71,SE,137,2.0,2.0,36,0.00,,,0.00,749,Wunderground v.1.15,2013-07-04 16:30:00,
2013-07-04 10:40:00,75.3,47.2,29.70,SSW,199,1.0,1.0,37,0.00,,,0.00,777,Wunderground v.1.15,2013-07-04 16:40:00,
2013-07-04 10:45:00,75.9,46.3,29.70,SW,233,2.0,3.0,35,0.00,,,0.00,703,Wunderground v.1.15,2013-07-04 16:45:00,
2013-07-04 10:50:00,76.0,47.1,29.70,South,172,2.0,2.0,36,0.00,,,0.00,752,Wunderground v.1.15,2013-07-04 16:50:00,
2013-07-04 10:55:00,76.5,46.8,29.69,SW,216,2.0,7.0,35,0.00,,,0.00,701,Wunderground v.1.15,2013-07-04 16:55:00,
2013-07-04 11:05:00,76.9,47.2,29.69,SSW,203,2.0,7.0,35,0.00,,,0.00,513,Wunderground v.1.15,2013-07-04 17:05:00,
2013-07-04 11:10:00,77.5,46.9,29.69,SSW,204,1.0,7.0,34,0.00,,,0.00,707,Wunderground v.1.15,2013-07-04 17:10:00,
2013-07-04 11:20:00,77.6,47.8,29.68,NNE,28,1.0,1.0,35,0.00,,,0.00,629,Wunderground v.1.15,2013-07-04 17:20:00,
2013-07-04 11:30:00,78.2,47.5,29.68,NE,56,1.0,7.0,34,0.00,,,0.00,798,Wunderground v.1.15,2013-07-04 17:30:00,
2013-07-04 11:35:00,78.2,47.5,29.68,ENE,59,1.0,7.0,34,0.00,,,0.00,765,Wunderground v.1.15,2013-07-04 17:35:00,
2013-07-04 11:45:00,79.5,47.9,29.67,ENE,64,1.0,7.0,33,0.00,,,0.00,587,Wunderground v.1.15,2013-07-04 17:45:00,
2013-07-04 11:55:00,79.1,47.5,29.66,SW,228,2.0,7.0,33,0.00,,,0.00,807,Wunderground v.1.15,2013-07-04 17:55:00,
2013-07-04 12:05:00,80.9,50.7,29.66,SSW,212,1.0,2.0,35,0.00,,,0.00,868,Wunderground v.1.15,2013-07-04 18:05:00,
2013-07-04 12:15:00,81.4,49.5,29.65,ENE,71,1.0,1.0,33,0.00,,,0.00,1023,Wunderground v.1.15,2013-07-04 18:15:00,
2013-07-04 12:20:00,81.9,48.3,29.65,East,90,0.0,0.0,31,0.00,,,0.00,754,Wunderground v.1.15,2013-07-04 18:20:00,
2013-07-04 12:30:00,81.4,47.9,29.65,ESE,104,1.0,1.0,31,0.00,,,0.00,898,Wunderground v.1.15,2013-07-04 18:30:00,
2013-07-04 12:40:00,82.6,48.0,29.64,SW,226,1.0,5.0,30,0.00,,,0.00,875,Wunderground v.1.15,2013-07-04 18:40:00,
2013-07-04 12:50:00,83.5,47.0,29.64,SSE,160,2.0,2.0,28,0.00,,,0.00,752,Wunderground v.1.15,2013-07-04 18:50:00,
2013-07-04 13:00:00,84.6,45.9,29.64,SE,135,1.0,1.0,26,0.00,,,0.00,455,Wunderground v.1.15,2013-07-04 19:00:00,
2013-07-04 13:10:00,84.5,46.8,29.63,SW,220,1.0,5.0,27,0.00,,,0.00,615,Wunderground v.1.15,2013-07-04 19:10:00,
2013-07-04 13:20:00,84.9,48.2,29.63,SSW,197,1.0,1.0,28,0.00,,,0.00,891,Wunderground v.1.15,2013-07-04 19:20:00,
2013-07-04 13:25:00,85.2,46.4,29.63,SSW,207,1.0,5.0,26,0.00,,,0.00,587,Wunderground v.1.15,2013-07-04 19:25:00,
2013-07-04 13:30:00,85.6,47.8,29.63,SSE,158,1.0,5.0,27,0.00,,,0.00,513,Wunderground v.1.15,2013-07-04 19:30:00,
2013-07-04 13:40:00,85.5,45.7,29.62,South,182,1.0,1.0,25,0.00,,,0.00,248,Wunderground v.1.15,2013-07-04 19:40:00,
2013-07-04 13:45:00,85.0,45.2,29.62,NW,304,0.0,5.0,25,0.00,,,0.00,220,Wunderground v.1.15,2013-07-04 19:45:00,
2013-07-04 13:55:00,85.0,45.2,29.62,SW,225,0.0,5.0,25,0.00,,,0.00,209,Wunderground v.1.15,2013-07-04 19:55:00,
2013-07-04 14:05:00,84.2,45.6,29.62,SW,236,1.0,5.0,26,0.00,,,0.00,265,Wunderground v.1.15,2013-07-04 20:05:00,
2013-07-04 14:15:00,84.6,46.9,29.62,WSW,241,0.0,5.0,27,0.00,,,0.00,425,Wunderground v.1.15,2013-07-04 20:15:00,
2013-07-04 14:25:00,84.7,45.0,29.61,SW,228,2.0,5.0,25,0.00,,,0.00,318,Wunderground v.1.15,2013-07-04 20:25:00,
2013-07-04 14:30:00,84.6,41.6,29.61,East,96,2.0,2.0,22,0.00,,,0.00,369,Wunderground v.1.15,2013-07-04 20:30:00,
2013-07-04 14:40:00,85.4,43.4,29.61,ESE,109,1.0,1.0,23,0.00,,,0.00,884,Wunderground v.1.15,2013-07-04 20:40:00,
2013-07-04 14:50:00,85.3,44.4,29.60,NNE,30,4.0,4.0,24,0.00,,,0.00,399,Wunderground v.1.15,2013-07-04 20:50:00,
2013-07-04 14:55:00,85.4,45.6,29.60,NNE,12,3.0,6.0,25,0.00,,,0.00,320,Wunderground v.1.15,2013-07-04 20:55:00,
2013-07-04 15:05:00,84.7,45.0,29.60,NNE,32,4.0,5.0,25,0.00,,,0.00,192,Wunderground v.1.15,2013-07-04 21:05:00,
2013-07-04 15:15:00,84.4,43.7,29.60,NE,52,4.0,5.0,24,0.00,,,0.00,158,Wunderground v.1.15,2013-07-04 21:15:00,
2013-07-04 15:20:00,84.2,43.5,29.60,NNE,33,4.0,4.0,24,0.00,,,0.00,158,Wunderground v.1.15,2013-07-04 21:20:00,
2013-07-04 15:25:00,84.4,45.8,29.59,NE,35,3.0,4.0,26,0.00,,,0.00,156,Wunderground v.1.15,2013-07-04 21:25:00,
2013-07-04 15:35:00,84.1,44.5,29.59,NE,35,3.0,5.0,25,0.00,,,0.00,186,Wunderground v.1.15,2013-07-04 21:35:00,
2013-07-04 15:40:00,83.8,45.3,29.59,NNE,14,3.0,4.0,26,0.00,,,0.00,207,Wunderground v.1.15,2013-07-04 21:40:00,
2013-07-04 15:50:00,84.1,46.5,29.58,NNE,30,4.0,4.0,27,0.00,,,0.00,258,Wunderground v.1.15,2013-07-04 21:50:00,
2013-07-04 16:00:00,84.2,44.6,29.58,North,4,3.0,7.0,25,0.00,,,0.00,343,Wunderground v.1.15,2013-07-04 22:00:00,
2013-07-04 16:10:00,85.4,43.4,29.58,NNW,345,4.0,7.0,23,0.00,,,0.00,926,Wunderground v.1.15,2013-07-04 22:10:00,
2013-07-04 16:15:00,85.3,43.3,29.57,NNW,347,5.0,10.0,23,0.00,,,0.00,540,Wunderground v.1.15,2013-07-04 22:15:00,
2013-07-04 16:25:00,84.7,43.9,29.57,North,10,6.0,7.0,24,0.00,,,0.00,195,Wunderground v.1.15,2013-07-04 22:25:00,
2013-07-04 16:30:00,84.7,43.9,29.57,NNE,16,4.0,7.0,24,0.00,,,0.00,163,Wunderground v.1.15,2013-07-04 22:30:00,
2013-07-04 16:40:00,84.6,43.8,29.57,NNE,12,5.0,8.0,24,0.00,,,0.00,148,Wunderground v.1.15,2013-07-04 22:40:00,
2013-07-04 16:45:00,84.3,44.6,29.57,NE,41,5.0,8.0,25,0.00,,,0.00,148,Wunderground v.1.15,2013-07-04 22:45:00,
2013-07-04 16:55:00,84.0,44.4,29.56,NNW,329,5.0,8.0,25,0.00,,,0.00,350,Wunderground v.1.15,2013-07-04 22:55:00,
2013-07-04 17:05:00,84.2,45.6,29.56,NNW,339,6.0,8.0,26,0.00,,,0.00,677,Wunderground v.1.15,2013-07-04 23:05:00,
2013-07-04 17:10:00,84.4,45.8,29.55,NNW,333,6.0,6.0,26,0.00,,,0.00,529,Wunderground v.1.15,2013-07-04 23:10:00,
2013-07-04 17:20:00,84.9,46.2,29.55,NNW,342,5.0,5.0,26,0.00,,,0.00,306,Wunderground v.1.15,2013-07-04 23:20:00,
2013-07-04 17:25:00,84.9,46.2,29.54,North,359,5.0,7.0,26,0.00,,,0.00,260,Wunderground v.1.15,2013-07-04 23:25:00,
2013-07-04 17:35:00,84.8,46.1,29.54,NNW,347,6.0,9.0,26,0.00,,,0.00,232,Wunderground v.1.15,2013-07-04 23:35:00,
2013-07-04 17:45:00,85.3,46.5,29.54,North,4,6.0,7.0,26,0.00,,,0.00,213,Wunderground v.1.15,2013-07-04 23:45:00,
2013-07-04 17:50:00,85.7,45.8,29.54,NE,45,5.0,5.0,25,0.00,,,0.00,192,Wunderground v.1.15,2013-07-04 23:50:00,
2013-07-04 18:00:00,86.0,47.1,29.53,North,359,4.0,7.0,26,0.00,,,0.00,144,Wunderground v.1.15,2013-07-05 00:00:00,
2013-07-04 18:05:00,86.3,45.3,29.53,NNE,27,4.0,7.0,24,0.00,,,0.00,130,Wunderground v.1.15,2013-07-05 00:05:00,
2013-07-04 18:15:00,85.7,44.7,29.53,NW,321,6.0,6.0,24,0.00,,,0.00,130,Wunderground v.1.15,2013-07-05 00:15:00,
2013-07-04 18:25:00,85.3,45.5,29.53,North,350,5.0,6.0,25,0.00,,,0.00,100,Wunderground v.1.15,2013-07-05 00:25:00,
2013-07-04 18:35:00,85.3,45.5,29.53,North,354,6.0,7.0,25,0.00,,,0.00,88,Wunderground v.1.15,2013-07-05 00:35:00,
2013-07-04 18:45:00,85.2,45.4,29.52,NNE,12,6.0,7.0,25,0.00,,,0.00,69,Wunderground v.1.15,2013-07-05 00:45:00,
2013-07-04 18:55:00,85.3,46.5,29.52,ENE,62,5.0,6.0,26,0.00,,,0.00,54,Wunderground v.1.15,2013-07-05 00:55:00,
2013-07-04 19:00:00,85.3,46.5,29.53,NNW,331,3.0,6.0,26,0.00,,,0.00,54,Wunderground v.1.15,2013-07-05 01:00:00,
2013-07-04 19:10:00,85.1,46.4,29.53,NE,39,4.0,4.0,26,0.00,,,0.00,47,Wunderground v.1.15,2013-07-05 01:10:00,
2013-07-04 19:15:00,85.0,46.3,29.53,NNE,27,3.0,11.0,26,0.00,,,0.00,44,Wunderground v.1.15,2013-07-05 01:15:00,
2013-07-04 19:25:00,84.6,45.9,29.53,NNE,23,3.0,11.0,26,0.00,,,0.00,35,Wunderground v.1.15,2013-07-05 01:25:00,
2013-07-04 19:35:00,84.2,46.6,29.53,NE,48,3.0,11.0,27,0.00,,,0.00,35,Wunderground v.1.15,2013-07-05 01:35:00,
2013-07-04 19:40:00,84.1,47.5,29.53,NE,48,5.0,5.0,28,0.00,,,0.00,37,Wunderground v.1.15,2013-07-05 01:40:00,
2013-07-04 19:45:00,83.9,46.3,29.54,NE,45,5.0,11.0,27,0.00,,,0.00,35,Wunderground v.1.15,2013-07-05 01:45:00,
2013-07-04 19:55:00,83.6,45.1,29.54,North,359,3.0,4.0,26,0.00,,,0.00,33,Wunderground v.1.15,2013-07-05 01:55:00,
2013-07-04 20:05:00,83.3,45.8,29.54,North,354,1.0,11.0,27,0.00,,,0.00,25,Wunderground v.1.15,2013-07-05 02:05:00,
2013-07-04 20:15:00,82.9,45.5,29.54,NE,39,2.0,11.0,27,0.00,,,0.00,18,Wunderground v.1.15,2013-07-05 02:15:00,
2013-07-04 20:20:00,82.5,47.0,29.54,ENE,78,1.0,1.0,29,0.00,,,0.00,16,Wunderground v.1.15,2013-07-05 02:20:00,
2013-07-04 20:25:00,82.1,45.8,29.54,North,8,2.0,6.0,28,0.00,,,0.00,12,Wunderground v.1.15,2013-07-05 02:25:00,
2013-07-04 20:35:00,81.6,46.3,29.54,NNW,346,3.0,5.0,29,0.00,,,0.00,5,Wunderground v.1.15,2013-07-05 02:35:00,
2013-07-04 20:45:00,81.2,46.8,29.54,North,8,3.0,11.0,30,0.00,,,0.00,0,Wunderground v.1.15,2013-07-05 02:45:00,
2013-07-04 20:50:00,81.0,46.6,29.54,North,350,3.0,11.0,30,0.00,,,0.00,0,Wunderground v.1.15,2013-07-05 02:50:00,
2013-07-04 20:55:00,80.8,47.3,29.55,NNE,31,2.0,11.0,31,0.00,,,0.00,0,Wunderground v.1.15,2013-07-05 02:55:00,
2013-07-04 21:05:00,80.1,47.6,29.55,NE,54,1.0,11.0,32,0.00,,,0.00,0,Wunderground v.1.15,2013-07-05 03:05:00,
2013-07-04 21:15:00,79.1,49.1,29.55,ENE,62,1.0,2.0,35,0.00,,,0.00,0,Wunderground v.1.15,2013-07-05 03:15:00,
2013-07-04 21:20:00,78.7,48.7,29.55,ENE,75,1.0,1.0,35,0.00,,,0.00,0,Wunderground v.1.15,2013-07-05 03:20:00,
2013-07-04 21:25:00,78.6,47.1,29.55,ENE,70,2.0,3.0,33,0.00,,,0.00,0,Wunderground v.1.15,2013-07-05 03:25:00,
2013-07-04 21:35:00,78.2,47.5,29.55,NE,52,2.0,4.0,34,0.00,,,0.00,0,Wunderground v.1.15,2013-07-05 03:35:00,
2013-07-04 21:45:00,77.7,47.9,29.55,NE,42,2.0,4.0,35,0.00,,,0.00,0,Wunderground v.1.15,2013-07-05 03:45:00,
2013-07-04 21:55:00,77.3,48.3,29.55,East,82,3.0,3.0,36,0.00,,,0.00,0,Wunderground v.1.15,2013-07-05 03:55:00,
2013-07-04 22:05:00,76.8,47.8,29.55,ENE,60,1.0,2.0,36,0.00,,,0.00,0,Wunderground v.1.15,2013-07-05 04:05:00,
2013-07-04 22:10:00,76.5,46.8,29.56,ENE,62,1.0,1.0,35,0.00,,,0.00,0,Wunderground v.1.15,2013-07-05 04:10:00,
2013-07-04 22:15:00,76.4,47.5,29.56,ENE,62,0.0,2.0,36,0.00,,,0.00,0,Wunderground v.1.15,2013-07-05 04:15:00,
2013-07-04 22:25:00,75.6,48.9,29.56,East,80,1.0,5.0,39,0.00,,,0.00,0,Wunderground v.1.15,2013-07-05 04:25:00,
2013-07-04 22:30:00,75.2,47.8,29.56,ENE,60,1.0,5.0,38,0.00,,,0.00,0,Wunderground v.1.15,2013-07-05 04:30:00,
2013-07-04 22:35:00,74.8,48.2,29.56,ENE,67,1.0,5.0,39,0.00,,,0.00,0,Wunderground v.1.15,2013-07-05 04:35:00,
2013-07-04 22:45:00,74.1,48.2,29.56,NE,56,2.0,5.0,40,0.00,,,0.00,0,Wunderground v.1.15,2013-07-05 04:45:00,
2013-07-04 22:50:00,73.9,47.4,29.56,ENE,73,1.0,1.0,39,0.00,,,0.00,0,Wunderground v.1.15,2013-07-05 04:50:00,
2013-07-04 23:00:00,73.8,47.3,29.57,ENE,73,0.0,5.0,39,0.00,,,0.00,0,Wunderground v.1.15,2013-07-05 05:00:00,
2013-07-04 23:10:00,73.5,46.3,29.57,ENE,73,0.0,5.0,38,0.00,,,0.00,0,Wunderground v.1.15,2013-07-05 05:10:00,
2013-07-04 23:15:00,73.5,47.0,29.57,ENE,73,0.0,5.0,39,0.00,,,0.00,0,Wunderground v.1.15,2013-07-05 05:15:00,
2013-07-04 23:25:00,73.0,47.2,29.57,ENE,73,0.0,5.0,40,0.00,,,0.00,0,Wunderground v.1.15,2013-07-05 05:25:00,
2013-07-04 23:30:00,72.9,47.2,29.57,ENE,73,0.0,5.0,40,0.00,,,0.00,0,Wunderground v.1.15,2013-07-05 05:30:00,
2013-07-04 23:35:00,72.7,47.0,29.57,ENE,73,0.0,5.0,40,0.00,,,0.00,0,Wunderground v.1.15,2013-07-05 05:35:00,
2013-07-04 23:45:00,72.4,46.7,29.58,ENE,73,0.0,5.0,40,0.00,,,0.00,0,Wunderground v.1.15,2013-07-05 05:45:00,
2013-07-04 23:50:00,72.3,46.6,29.58,ENE,73,0.0,5.0,40,0.00,,,0.00,0,Wunderground v.1.15,2013-07-05 05:50:00,